Torna al catalogo

STARLINK-34970

AttivoComunicazioniSSO
NORAD 65450·PAYLOAD·🇺🇸 United States

Lanciato Sep 3, 2025 da Vandenberg Space Force Base

Loading…

Prossimi Passaggi (prossime 24 ore)

TLE

AggiornatoSource: CelesTrak SupGP

Epoca: Sep 14, 2026, 21:27 UTC

1 65450C 25194S   26257.89423611  .00061416  00000+0  19072-2 0  2572
2 65450  97.2843 107.5591 0001735  93.7167 311.5285 15.33395831    19

Traccia STARLINK-34970 in tempo reale con AllMySat

Download on the App Store